Location: Berbisdorf
(50.7638°N, 12.9442°E)
Time: 13:03:04
(UTC+00:00)

STARLINK-1317 - Pass Details

Date: 08 October 2020
Orbit: 549 x 550 km, 53.0° (Epoch: 27 October)

Event Time Altitude Azimuth Distance (km) Brightness Sun altitude
Exits shadow 03:47:38 25° 232° (SW) 1,125 4.7 -15.4°
Maximum altitude 03:49:55 69° 155° (SSE) 590 3.8 -15.1°
Drops below altitude 10° 03:54:03 10° 72° (ENE) 1,826 7.6 -14.4°
Sets 03:56:17 0° 70° (ENE) 2,722 8.9 -14.1°
